MPEC 2005-L66 : 2005 LX36

The following Minor Planet Electronic Circular may be linked-to from your own Web pages, but must not otherwise be redistributed electronically.


Read MPEC 2005-L65 Read MPEC 2005-L67


M.P.E.C. 2005-L66                                Issued 2005 June 14, 23:51 UT

     The Minor Planet Electronic Circulars contain information on unusual
         minor planets and routine data on comets.  They are published
   on behalf of Commission 20 of the International Astronomical Union by the
          Minor Planet Center, Smithsonian Astrophysical Observatory,
                          Cambridge, MA 02138, U.S.A.

                  Supported in part by the Brinson Foundation
             Prepared using the Tamkin Foundation Computer Network

                              MPC@CFA.HARVARD.EDU
          URL http://cfa-www.harvard.edu/iau/mpc.html  ISSN 1523-6714

                                   2005 LX36

Observations:
     K05L36X* C2005 06 14.26011 16 10 12.88 +27 29 38.0          17.9 R EL066699
     K05L36X  C2005 06 14.28570 16 10 07.15 +27 28 08.1                 EL066699
     K05L36X  C2005 06 14.31129 16 10 01.42 +27 26 37.1                 EL066699
     K05L36X  C2005 06 14.33689 16 09 55.85 +27 25 07.1                 EL066699
     K05L36X  C2005 06 14.36392 16 09 49.41 +27 23 21.4          18.3 R EL066649
     K05L36X  C2005 06 14.36569 16 09 49.04 +27 23 15.1          18.1 R EL066649
     K05L36X  C2005 06 14.36747 16 09 48.65 +27 23 08.6          18.3 R EL066649
     K05L36X  C2005 06 14.39709 16 09 42.90 +27 21 35.4          17.9 R EL066651
     K05L36X  C2005 06 14.39905 16 09 42.43 +27 21 28.1          17.9 R EL066651
     K05L36X  C2005 06 14.40040 16 09 42.15 +27 21 22.9          18.0 R EL066651
     K05L36X  C2005 06 14.89747 16 08 14.69 +26 53 53.6          18.2 V EL066A17
     K05L36X  C2005 06 14.92007 16 08 10.35 +26 52 41.8          18.1 V EL066A17
     K05L36X  C2005 06 14.93425 16 08 07.65 +26 51 56.7          18.4 V EL066A17

Observer details:
649 Powell Observatory, Louisburg.  Observer R. Trentman.  0.75-m Newtonian
    reflector + CCD.
651 Grasslands Observatory, Tucson.  Observer J. E. McGaha.  0.62-m f/5.1
    Newtonian reflector + CCD.
699 Lowell Observatory-LONEOS.  Observer B. A. Skiff.  0.59-m LONEOS Schmidt
    + CCD.
A17 Guidestar Observatory, Weinheim.  Observers M. Emmerich, S. Melchert.
    0.36-m f/6 Schmidt-Cassegrain + CCD.

Orbital elements:
2005 LX36                                                            PHA 0.022A
Epoch 2005 May 30.0 TT = JDT 2453520.5                  MPC
M  47.24906              (2000.0)            P               Q
n   0.91490027     Peri.  239.81249     -0.53707528     -0.65076564
a   1.0508810      Node   252.99511     +0.82610183     -0.53446070
e   0.5859555      Incl.   34.14191     -0.17060454     -0.53931053
P   1.08           H   20.6           G   0.15
From 13 observations 2005 June 14-14.

Ephemeris:
2005 LX36                a,e,i = 1.05, 0.59, 34                  q = 0.4351
Date    TT    R. A. (2000) Decl.     Delta      r     Elong.  Phase     V
2005 06 09    16 50.57   +37 07.2    0.0679   1.051   119.8    57.0    16.9
2005 06 19    16 00.14   +24 09.0    0.201    1.144   125.4    46.3    19.2
2005 06 29    15 54.27   +20 29.6    0.338    1.229   121.8    44.7    20.4
2005 07 09    15 55.50   +18 02.6    0.478    1.305   117.0    43.9    21.3
2005 07 19    16 00.27   +15 56.1    0.619    1.373   112.0    43.3    21.9

Timothy B. Spahr             (C) Copyright 2005 MPC           M.P.E.C. 2005-L66

Read MPEC 2005-L65 Read MPEC 2005-L67


Our Web policy. Index to the CBAT/MPC/ICQ pages.

MPC